Accueil
METAR-TAF:

METAR-TAF

Aéroports :

Dijon, France

Aéroport de Dijon-Bourgogne

latitude: 47-16N, longitude: 005-05E, altitude: 222 m

Observation

Le bulletin a été fait il y a 19 minutes, à 20:30 UTC
Vent 6 kt de sud-ouest
Température 8°C
Humidité 81%
Pression 1023 hPa
Visibilité 10 km ou plus
pas de nuages en-dessous de 1500 mètres et pas de cumulonimbus.

METAR: LFSD 222030Z AUTO 22006KT CAVOK 08/05 Q1023

Heure: 22:49 (20:49 UTC)


TAF: absent

Observations et prévisions météorologiques de plus de 4000 aéroports (messages METAR et TAF).

Les stations disponibles sont représentées par des disques jaunes et rouges sur la carte.

Passer la souris dessus pour voir le nom de la station.

Cliquer dessus pour voir les observations et prévisions météorologiques.

Pour changer de carte: cliquez sur les boutons verts avec une croix noire pour zoomer, sur le bouton vert avec un tiret pour effectuer un zoom arrière, ou sur les flèches vertes pour les cartes adjacentes.


METAR-TAF: